Regional Weather Roundup
Issued by NWS Cleveland, OH

Home | Current Version | Previous Version | Graphics & Text | Print | Product List | Glossary On
Versions: 1 2 3 4 5 6 7 8 9 10 11 12 13 14 15 16 17 18 19 20 21 22 23 24 25 26 27 28 29 30 31 32 33 34 35 36 37 38 39 40 41 42 43 44 45 46 47 48 49 50
000
ASUS41 KCLE 300802
RWRCLE
OHIO REGIONAL WEATHER ROUNDUP
NATIONAL WEATHER SERVICE CLEVELAND, OH
400 AM EDT MON MAR 30 2015

NOTE: "FAIR" INDICATES FEW OR NO CLOUDS BELOW 12,000 FEET WITH NO
SIGNIFICANT WEATHER AND/OR OBSTRUCTIONS TO VISIBILITY.

OHZ001>008-015>018-024>027-034-035-043-044-300900-
   NORTHWEST OHIO

CITY           SKY/WX    TMP DP  RH WIND       PRES   REMARKS
DEFIANCE       CLOUDY    43  32  65 W8G17     29.89R
FINDLAY        CLOUDY    42  32  67 W13       29.87R
TOLEDO EXPRESS CLOUDY    42  31  64 W14       29.85R
TOLEDO EXEC    CLOUDY    43  31  62 W16       29.85R
LIMA           MOCLDY    43  33  68 W15       29.90R
$$

OHZ009>014-019>023-028>033-038-089-300900-
   NORTHEAST OHIO

CITY           SKY/WX    TMP DP  RH WIND       PRES   REMARKS
CLE-HOPKINS    CLOUDY    42  33  70 W18G37    29.84R
CLE-LAKEFRONT  CLOUDY    39  33  79 W22       29.81R
CUY CO. ARPT   NOT AVBL
LORAIN-ELYRIA  CLOUDY    42  33  70 W15G25    29.83R
ASHTABULA      CLOUDY    40  35  83 W15G24    29.76F
AKRON-CANTON   CLOUDY    40  36  86 SW10      29.81F
WOOSTER        CLOUDY    41  35  79 W15       29.83S
MANSFIELD      PTCLDY    40  35  83 W15G23    29.84R
YOUNGSTOWN     CLOUDY    38  36  92 SW10      29.79F
$$

OHZ042-051>053-060>062-070>072-077>081-300900-
  SOUTHWEST OHIO

CITY           SKY/WX    TMP DP  RH WIND       PRES   REMARKS
CINC-COVINGTON MOCLDY    48  41  76 NW18      29.97S
CINC-LUNKEN    MOCLDY    49  41  74 W9G24     29.98S
HAMILTON       CLEAR     47  38  71 NW18G30   29.99R
DAYTON         MOCLDY    44  38  79 W15       29.94S
WRIGHT-PAT AFB NOT AVBL
DAYTON GENERAL PTCLDY    45  39  79 NW14      29.95R
WILMINGTON     MOCLDY    45  39  79 W17G28    29.93S
$$

OHZ036-037-039>041-045>050-054>059-063>069-073>076-082>088-300900-
  CENTRAL AND SOUTHEAST OHIO

CITY           SKY/WX    TMP DP  RH WIND       PRES   REMARKS
COLUMBUS       CLOUDY    44  39  82 W9        29.90S
OSU AIRPORT    CLOUDY    44  38  79 W14       29.90R
BOLTON FIELD   CLOUDY   N/A N/A N/A W9G17     29.91R
RICKENBACK AFB CLOUDY    43  39  86 W12       29.91S
NEWARK         CLOUDY    43  38  82 W14       29.88S
MARION         MOCLDY    42  33  70 W13G23    29.89R
LANCASTER      CLOUDY    45  39  79 W14G22    29.90F
ZANESVILLE     CLOUDY    41  37  86 SW10      29.88S
NEW PHILLY     CLOUDY    43  37  79 VRB7      29.86S
$$



USA.gov is the U.S. government's official web portal to all federal, state and local government web resources and services.